Weather in Lidoga

Russia / Khabarovsk Krai     49°30′26″N   136°54′02″E
temp.,
°C
wind,
m/s
gust,
m/s
humid.,
%
clouds,
%
prec.,
mm/h
press.,
hPa
HPBL,
m
27 february, sat
sat2701:00−19s2298100 0.1 103383
04:00−19s2498100 0.1 1033112
07:00−22s239985 0.0 103477
10:00−16ssw398774 0.0 1033468
13:00−11ssw498391 0.0 1031654
16:00−10ssw488395 0.0 1027583
19:00−12ssw1192100 0.0 102621
22:00−12se0194100 0.0 102320
28 february, sun
sun2801:00−12ssw1293100 0.0 101934
04:00−10ssw21196100 1.6 1016630
07:00−7sw51394100 1.4 1015947
10:00−5sw61390100 2.1 1014690
13:00−4sw71379100 0.0 1014794
16:00−6sw7137999 0.0 1014946
19:00−10sw5147492 0.0 1017794
22:00−13ssw5137950 0.0 1020678
1 march, mon
mon101:00−17s311870 0.0 1022461
04:00−19ssw412861 0.0 1024579
07:00−19ssw51191100 0.1 1025641
10:00−19ssw61186100 0.2 1027721
13:00−16ssw61077100 0.0 1026999
16:00−13sw597195 0.1 10271146
19:00−16sw513760 0.0 1029780
22:00−18sw513810 0.0 1030668
2 march, tue
tue201:00−21ssw411880 0.0 1030361
04:00−23ssw311920 0.0 1030305
07:00−25s39950 0.0 1031232
10:00−21ssw48860 0.0 1031578
13:00−17sw47760 0.0 1029857
16:00−16sw367731 0.0 1028829
19:00−21sse22922 0.0 103020
22:00−23sse23901 0.0 103245
3 march, wed
wed301:00−25sse23930 0.0 103136
04:00−26sse22940 0.0 103021
07:00−27sse22940 0.0 103021
10:00−20s25850 0.0 1028285
13:00−14sw37799 0.0 1025713
16:00−12sw367955 0.0 1021707
19:00−16sse0091100 0.0 102020
22:00−16s1193100 0.0 101820